Regional Weather Roundup
Issued by NWS

Home | Current Version | Previous Version | Graphics & Text | Print | Product List | Glossary On
Versions: 1 2 3 4 5 6 7 8 9 10 11 12 13 14 15 16 17 18 19 20 21 22 23 24 25 26 27 28 29 30 31 32 33 34 35 36 37 38 39 40 41 42 43 44 45 46 47 48 49 50
000
ASUS43 KIND 172109
RWRIN

WEATHER ROUNDUP FOR INDIANA
NATIONAL WEATHER SERVICE INDIANAPOLIS IN
400 PM EST SUN DEC 17 2017

NOTE: "FAIR" INDICATES FEW OR NO CLOUDS BELOW 12,000 FEET WITH NO
SIGNIFICANT WEATHER AND/OR OBSTRUCTIONS TO VISIBILITY.

* - STATION DOES NOT REPORT WEATHER SUCH AS PRECIPITATION OR FOG.

+ - STATION NOT QUALITY CONTROLLED BY THE NATIONAL WEATHER SERVICE.
    USE DATA WITH CAUTION...ESPECIALLY DEWPOINT AND RELATIVE
    HUMIDITY OBSERVATIONS.

INZ001>003-010>013-019-020-172200-
NORTHWEST INDIANA

CITY           SKY/WX    TMP DP  RH WIND       PRES   REMARKS
GARY /AIRPORT/ CLOUDY    48  30  49 SW6       29.99
KNOX *+        CLOUDY    43  34  70 S12       30.00S
LA PORTE +     CLOUDY    41  32  71 SW5       30.00S
MICHIGAN CITY+ CLOUDY    43  32  65 S6        30.00S
MONTICELLO +   CLOUDY    41  35  77 S6        30.03S
RENSSELAER +   CLOUDY    43  34  70 S10       30.01F
VALPARAISO     CLOUDY    45  34  65 SW8       30.00S

$$

LMZ046-743>745-172200-
SOUTHERN LAKE MICHIGAN

STATION/POSITION TIME  TEMP    WIND        PRES    WAVE
                       AIR SEA DIR/SP/G            HT
                 (UTC) (F)     (DEG/KT/KT) (MB)    (FT)
BURNS HARBOR     2040   46     200/  9/ 13 1015.9F
MICHIGAN CITY    2040   45     180/  8/ 10   N/A

$$

INZ004-005-014>016-021>024-172200-
NORTH CENTRAL INDIANA

CITY           SKY/WX    TMP DP  RH WIND       PRES   REMARKS
ELKHART        CLOUDY    37  32  81 SE5       30.01F WCI  34
GOSHEN         CLOUDY    39  32  76 SE5       30.02R WCI  36
LOGANSPORT +   CLOUDY    39  36  87 S6        30.05R WCI  35
ROCHESTER +    CLOUDY    43  36  75 SW7       30.03R
SOUTH BEND     CLOUDY    38  33  82 S6        30.01S WCI  33
WARSAW +       CLOUDY    41  32  70 S5        30.02S

$$

INZ006>009-017-018-025>027-172200-
NORTHEAST INDIANA

CITY           SKY/WX    TMP DP  RH WIND       PRES   REMARKS
AUBURN +       CLOUDY    36  32  87 SE3       30.04F
FORT WAYNE     LGT RAIN  39  35  86 S9        30.05R WCI  33
HUNTINGTON +   CLOUDY    38  36  92 S7        30.04S WCI  33
KENDALLVILLE + CLOUDY    36  32  87 S6        30.03R WCI  31

$$

INZ028-029-035-036-043>045-051>053-172200-
WEST CENTRAL INDIANA

CITY           SKY/WX    TMP DP  RH WIND       PRES   REMARKS
CRAWFORDSVL +  CLOUDY    41  38  87 S5        30.03F
GREENCASTLE +  CLOUDY    43  39  87 S8        30.05S
LAFAYETTE      CLOUDY    43  37  79 SW3       30.04S
TERRE HAUTE    MOSUNNY   46  38  73 S7        30.05F

$$

INZ030>032-037>040-046>048-054>057-064-065-172200-
CENTRAL INDIANA

CITY           SKY/WX    TMP DP  RH WIND       PRES   REMARKS
COLUMBUS       CLOUDY    45  32  61 CALM      30.08F
FRANKFORT +    CLOUDY    45  39  79 S6        30.04F
GREENWOOD *+   CLOUDY    45  40  85 S6        30.07S
INDIANAPOLIS   CLOUDY    42  38  85 S12       30.05F
-EAGLE CREEK   CLOUDY    43  38  82 S3        30.04F
KOKOMO +       CLOUDY    40  37  89 S6        30.05S WCI  36
MARION +       CLOUDY    39  36  87 S5        30.05F WCI  36
MT COMFORT *+  CLOUDY    39  39 100 S8        30.05F WCI  34
SHELBYVILLE    CLOUDY    43  36  76 S8        30.07F
ZIONSVILLE +   CLOUDY    42  37  84 S5        30.04F

$$

INZ033-034-041-042-049-050-058-059-172200-
EAST CENTRAL INDIANA

CITY           SKY/WX    TMP DP  RH WIND       PRES   REMARKS
MUNCIE         CLOUDY    43  36  76 S6        30.05S
RICHMOND +     CLOUDY    37  36  93 SW7       30.08F WCI  32

$$

INZ060-061-067>069-081>083-085>088-172200-
SOUTHWEST INDIANA

CITY           SKY/WX    TMP DP  RH WIND       PRES   REMARKS
EVANSVILLE     LGT RAIN  45  39  79 S6        30.10S
HUNTINGBURG +  CLOUDY    45  37  76 S7        30.10F
WASHINGTON +   CLOUDY    46  35  67 S8        30.07S

$$

INZ062-063-066-070>080-084-089>092-172200-
SOUTH CENTRAL AND SOUTHEAST INDIANA

CITY           SKY/WX    TMP DP  RH WIND       PRES   REMARKS
BEDFORD +      CLOUDY    46  34  61 S7        30.06F
BLOOMINGTON    PTSUNNY   47  35  63 S8        30.05F
MADISON *+     CLOUDY    43  32  65 S6        30.11F
NORTH VERNON + CLOUDY    45  32  61 S3        30.10S
SEYMOUR +      CLOUDY    48  32  53 S5        30.09F

$$





USA.gov is the U.S. government's official web portal to all federal, state and local government web resources and services.